Date,TemperatureHighF,TemperatureAvgF,TemperatureLowF,DewpointHighF,DewpointAvgF,DewpointLowF,HumidityHigh,HumidityAvg,HumidityLow,PressureMaxIn,PressureMinIn,WindSpeedMaxMPH,WindSpeedAvgMPH,GustSpeedMaxMPH,PrecipitationSumIn
2013-3-9,40.5,36.8,33.6,35.5,33.9,32.2,99,89,77,30.42,30.05,4,2,8,0.30
2013-3-10,39.6,35.2,32.5,39.3,34.8,32.3,99,98,94,30.10,29.90,4,1,10,0.35
2013-3-11,36.9,33.0,27.5,36.1,32.2,24.4,99,97,88,29.90,29.69,4,0,8,0.13
2013-3-12,35.2,26.9,19.6,26.7,21.9,14.8,95,81,69,30.14,29.84,2,0,4,0.01
2013-3-13,43.2,27.2,19.2,18.6,15.4,7.7,94,66,27,30.46,30.13,4,0,11,0.01
2013-3-14,45.3,28.9,15.3,27.5,18.5,12.4,92,69,35,30.46,30.17,3,1,8,0.00
2013-3-15,44.1,30.6,19.0,29.9,23.5,16.0,96,77,46,30.20,30.09,3,1,8,0.00
2013-3-16,38.7,24.6,17.8,20.2,16.0,11.6,94,72,37,30.31,30.12,3,1,8,0.06
2013-3-17,32.4,19.4,7.0,17.7,10.6,2.0,92,70,47,30.53,30.30,3,0,8,0.00
2013-3-18,39.7,28.4,22.6,30.1,24.0,17.7,99,84,56,30.30,29.70,4,1,9,0.00
2013-3-19,36.7,23.6,14.5,24.1,17.5,7.8,98,79,53,30.10,29.71,3,0,8,0.05
2013-3-20,35.4,19.8,6.4,17.3,10.4,1.7,89,69,40,30.18,30.09,3,0,8,0.00
2013-3-21,40.5,24.6,15.3,21.8,15.7,11.7,90,71,42,30.22,30.14,4,0,9,0.01
2013-3-22,39.0,26.0,10.2,26.0,19.2,7.4,92,76,52,30.29,30.21,3,0,5,0.04
2013-3-23,43.0,31.7,25.0,27.6,24.6,22.3,90,76,50,30.37,30.28,3,0,5,0.00
2013-3-24,40.3,31.3,23.5,28.7,24.4,21.5,93,76,52,30.33,30.09,4,1,10,0.00
2013-3-25,45.5,31.9,23.7,29.7,26.1,22.0,96,80,52,30.30,30.07,5,1,11,0.00
2013-3-26,47.5,34.5,28.4,33.4,29.0,25.5,92,81,55,30.42,30.28,3,0,8,0.00
2013-3-27,54.5,36.1,24.1,29.9,24.7,19.9,91,68,31,30.48,30.40,2,0,6,0.00
2013-3-28,53.1,36.0,23.2,26.9,22.6,19.3,85,63,31,30.52,30.46,3,0,4,0.00
2013-3-29,58.5,38.1,25.0,26.3,22.8,15.0,90,60,23,30.52,30.40,2,0,4,0.00
2013-3-30,43.2,36.3,29.8,39.8,29.9,22.4,99,79,55,30.41,29.97,4,1,8,0.17
2013-3-31,47.3,35.5,26.4,38.6,31.7,21.1,99,87,63,30.07,29.81,4,1,12,0.02